Content
SEND FEEDBACK

Daily
Averages
Monthly
Summary
United States of America

SULLIVANS ISLAND, SOUTH CAROLINA


Home > North America > United States > South Carolina
Elevation: 0 feet     Latitude: 32 46N     Longitude: 079 51W

WEATHER
 
SELECT A DAY
Number of Records: 135,701;   Date Range: 12/7/08 - 9/21/14
 
SHARE

PRINT THIS DATA

[ ← Previous Day ]
WEATHER ALMANAC - JANUARY 31, 2013
[ Next Day → ]
[ °C ]   °F
Weather ElementAverageHighLow
Temperature51.4 °F57.2 °F (1:55 pm)44.6 °F (8:55 pm)
Dewpoint31.6 °F53.6 °F (12:35 am)19.4 °F (4:15 pm)
Humidity50.7 %94 % (12:35 am)23 % (4:35 pm)
Barometer30.00 in30.20 in (11:35 pm)29.76 in (12:35 am)
Wind Speed11.7 mph24.2 mph (12:55 am)
Wind Gust43.7 mph (12:35 am)
Weather ElementAverage
Visibility9.5 mi
Wind DirectionWSW (243.4 °)

Weather ElementTotal
Precipitation0.16 in
Heating Degree Days14.1 (Base 65)
Growing Degree Days0.9 (Base 50)
Averaged from 68 records on January 31, 2013
WEATHER CONDITIONS BREAKOUT
WIND DIRECTION BREAKOUT
WEATHER BY HOUR - JANUARY 31, 2013
[ °C ]   °F
Local TimeTemperatureDewpointHumidityBarometerVisibilityWind DirectionWind SpeedGust SpeedPrecipitationEventsConditions
12:35 AM55.4 °F53.6 °F94 %29.76 in2.0 miWest (270°)21.9 mph43.7 mph0.01 inLight Drizzle
12:55 AM55.4 °F53.6 °F94 %29.78 in5.0 miWest (260°)24.2 mph33.4 mph0.01 inRainLight Rain
1:15 AM53.6 °F51.8 °F94 %29.77 in3.0 miWSW (250°)15.0 mph28.8 mph0.02 inRainHeavy Rain
1:35 AM53.6 °F51.8 °F94 %29.77 in4.0 miSW (230°)12.7 mph16.1 mph0.04 inRainLight Rain
1:55 AM51.8 °F50.0 °F94 %29.78 in3.0 miWSW (240°)10.4 mph20.7 mph0.07 inMostly Cloudy
2:15 AM51.8 °F48.2 °F88 %29.79 in10.0 miWSW (240°)10.4 mph16.1 mph0.00 inOvercast
2:35 AM53.6 °F48.2 °F82 %29.80 in10.0 miWest (260°)9.2 mph0.00 inOvercast
2:55 AM53.6 °F48.2 °F82 %29.81 in10.0 miWSW (250°)9.2 mph0.00 inOvercast
3:15 AM53.6 °F48.2 °F82 %29.82 in10.0 miWSW (250°)9.2 mph0.00 inOvercast
3:35 AM53.6 °F48.2 °F82 %29.82 in10.0 miWSW (240°)5.8 mph0.00 inOvercast
3:55 AM53.6 °F48.2 °F82 %29.82 in10.0 miWSW (240°)8.1 mph0.00 inMostly Cloudy
4:15 AM53.6 °F50.0 °F88 %29.83 in10.0 miWSW (240°)10.4 mph17.3 mph0.00 inMostly Cloudy
4:35 AM55.4 °F46.4 °F72 %29.84 in10.0 miWest (260°)15.0 mph31.1 mph0.00 inMostly Cloudy
4:55 AM53.6 °F46.4 °F77 %29.84 in10.0 miWest (270°)20.7 mph29.9 mph0.01 inMostly Cloudy
5:15 AM51.8 °F41.0 °F67 %29.86 in10.0 miWest (270°)21.9 mph29.9 mph0.00 inScattered Clouds
5:35 AM51.8 °F39.2 °F62 %29.86 in10.0 miWest (260°)18.4 mph27.6 mph0.00 inPartly Cloudy
5:55 AM51.8 °F39.2 °F62 %29.89 in10.0 miWest (270°)18.4 mph26.5 mph0.00 inClear
6:15 AM50.0 °F37.4 °F62 %29.90 in10.0 miWest (280°)18.4 mph26.5 mph0.00 inClear
6:35 AM48.2 °F33.8 °F58 %29.92 in10.0 miWest (270°)13.8 mph23.0 mph0.00 inClear
6:55 AM48.2 °F32.0 °F54 %29.94 in10.0 miWest (280°)16.1 mph27.6 mph0.00 inClear
7:15 AM46.4 °F32.0 °F57 %29.95 in10.0 miWest (280°)18.4 mph31.1 mph0.00 inClear
7:55 AM46.4 °F32.0 °F57 %29.97 in10.0 miWest (260°)9.2 mph20.7 mph0.00 inClear
8:15 AM48.2 °F32.0 °F54 %29.98 in10.0 miWest (260°)9.2 mph16.1 mph0.00 inClear
8:35 AM48.2 °F32.0 °F54 %30.00 in10.0 miWest (270°)12.7 mph17.3 mph0.00 inClear
9:15 AM50.0 °F33.8 °F54 %30.02 in10.0 miWest (280°)17.3 mph21.9 mph0.00 inClear
9:35 AM50.0 °F32.0 °F50 %30.02 in10.0 miWest (280°)15.0 mph24.2 mph0.00 inClear
9:55 AM50.0 °F32.0 °F50 %30.02 in10.0 miWest (270°)13.8 mph20.7 mph0.00 inClear
10:15 AM50.0 °F28.4 °F43 %30.03 in10.0 miWNW (290°)17.3 mph26.5 mph0.00 inClear
10:35 AM51.8 °F28.4 °F41 %30.04 in10.0 miWNW (290°)12.7 mph21.9 mph0.00 inClear
10:55 AM51.8 °F26.6 °F38 %30.04 in10.0 miWNW (290°)16.1 mph25.3 mph0.00 inClear
11:15 AM51.8 °F26.6 °F38 %30.04 in10.0 miWNW (290°)17.3 mph0.00 inClear
11:35 AM53.6 °F26.6 °F35 %30.04 in10.0 miWest (270°)15.0 mph20.7 mph0.00 inClear
11:55 AM53.6 °F28.4 °F38 %30.04 in10.0 miWest (270°)12.7 mph18.4 mph0.00 inClear
12:15 PM53.6 °F26.6 °F35 %30.04 in10.0 miWest (270°)15.0 mph20.7 mph0.00 inClear
12:35 PM53.6 °F26.6 °F35 %30.03 in10.0 miWest (270°)13.8 mph24.2 mph0.00 inClear
12:55 PM55.4 °F26.6 °F33 %30.03 in10.0 miWest (270°)16.1 mph21.9 mph0.00 inClear
1:15 PM55.4 °F23.0 °F29 %30.02 in10.0 miWest (270°)13.8 mph25.3 mph0.00 inClear
1:35 PM55.4 °F21.2 °F26 %30.02 in10.0 miWest (270°)20.7 mph0.00 inClear
1:55 PM57.2 °F23.0 °F27 %30.02 in10.0 miWest (260°)16.1 mph19.6 mph0.00 inClear
2:15 PM57.2 °F21.2 °F25 %30.02 in10.0 miWest (270°)17.3 mph26.5 mph0.00 inClear
2:35 PM55.4 °F21.2 °F26 %30.02 in10.0 miWest (270°)15.0 mph20.7 mph0.00 inClear
2:55 PM57.2 °F21.2 °F25 %30.02 in10.0 miWSW (250°)13.8 mph24.2 mph0.00 inClear
3:15 PM57.2 °F21.2 °F25 %30.02 in10.0 miWest (260°)15.0 mph25.3 mph0.00 inClear
3:35 PM57.2 °F21.2 °F25 %30.03 in10.0 miWest (260°)11.5 mph21.9 mph0.00 inClear
4:15 PM55.4 °F19.4 °F25 %30.05 in10.0 miWest (270°)18.4 mph26.5 mph0.00 inClear
4:35 PM57.2 °F19.4 °F23 %30.05 in10.0 miWest (270°)15.0 mph20.7 mph0.00 inClear
4:55 PM55.4 °F19.4 °F25 %30.06 in10.0 miWest (270°)13.8 mph23.0 mph0.00 inClear
5:15 PM55.4 °F21.2 °F26 %30.06 in10.0 miWest (260°)12.7 mph18.4 mph0.00 inClear
5:35 PM53.6 °F19.4 °F26 %30.07 in10.0 miWest (270°)13.8 mph19.6 mph0.00 inClear
5:55 PM53.6 °F21.2 °F28 %30.08 in10.0 miWest (260°)4.6 mph17.3 mph0.00 inClear
6:15 PM51.8 °F21.2 °F30 %30.09 in10.0 miWest (260°)6.9 mph0.00 inClear
6:35 PM51.8 °F23.0 °F33 %30.10 in10.0 miCalm0.00 inClear
6:55 PM48.2 °F23.0 °F37 %30.11 in10.0 miWest (260°)3.5 mph0.00 inClear
7:15 PM48.2 °F24.8 °F40 %30.12 in10.0 miCalm0.00 inClear
7:35 PM48.2 °F24.8 °F40 %30.12 in10.0 miWSW (250°)4.6 mph0.00 inClear
7:55 PM46.4 °F24.8 °F43 %30.13 in10.0 miCalm0.00 inClear
8:15 PM46.4 °F26.6 °F46 %30.14 in10.0 miWSW (240°)5.8 mph0.00 inClear
8:35 PM46.4 °F26.6 °F46 %30.15 in10.0 miCalm0.00 inClear
8:55 PM44.6 °F26.6 °F49 %30.15 in10.0 miWSW (240°)3.5 mph0.00 inClear
9:15 PM44.6 °F28.4 °F53 %30.16 in10.0 miCalm0.00 inClear
9:35 PM44.6 °F28.4 °F53 %30.16 in10.0 miWSW (250°)5.8 mph0.00 inClear
9:55 PM44.6 °F28.4 °F53 %30.17 in10.0 miWSW (250°)5.8 mph0.00 inClear
10:15 PM46.4 °F28.4 °F50 %30.17 in10.0 miWSW (250°)6.9 mph0.00 inClear
10:35 PM46.4 °F26.6 °F46 %30.19 in10.0 miWSW (250°)6.9 mph0.00 inClear
10:55 PM46.4 °F26.6 °F46 %30.19 in10.0 miWest (260°)6.9 mph0.00 inClear
11:15 PM46.4 °F26.6 °F46 %30.19 in10.0 miWest (260°)5.8 mph0.00 inClear
11:35 PM46.4 °F26.6 °F46 %30.20 in10.0 miWest (260°)5.8 mph0.00 inClear
11:55 PM44.6 °F26.6 °F49 %30.20 in10.0 miWest (270°)6.9 mph0.00 inClear
Hourly data recorded from KJZI, located miles away from Sullivans Island, South Carolina







STORIES FROM OUR PARTNERS